Weather in Kungurtug

Russia / Tyva Republic     50°35′52″N   97°31′24″E
temp.,
°C
wind,
m/s
gust,
m/s
humid.,
%
clouds,
%
prec.,
mm/h
press.,
hPa
HPBL,
m
14 august, sun
sun1401:00+8ssw218980 0.1 101014
04:00+7ssw1189100 0.0 101010
07:00+10sw117872 0.0 1010102
10:00+17nw254732 0.1 10081585
13:00+16nw4648100 0.1 10081415
16:00+16nnw365282 0.2 10081071
19:00+14nnw115966 0.2 100911
22:00+10s22744 0.0 101119
15 august, mon
mon1501:00+7s22875 0.0 101127
04:00+7s228726 0.0 101130
07:00+11nw116875 0.0 1010128
10:00+19nne144026 0.0 10061344
13:00+21w493297 0.0 10032627
16:00+20wsw373750 0.0 10011100
19:00+18wnw384234 0.1 1001352
22:00+9nnw118118 0.0 100611
16 august, tue
tue1601:00+7nw119836 0.0 100824
04:00+7nw2395100 0.1 1009206
07:00+7nnw1292100 0.3 1010273
10:00+9sse117649 0.1 1008543
13:00+15n2249100 0.1 10051593
16:00+14nnw23475 0.1 10051237
19:00+13nnw244862 0.1 1004119
22:00+6wsw11665 0.0 100810
17 august, wed
wed1701:00+4sw11702 0.0 101110
04:00+2ssw11801 0.0 101210
07:00+5ne00665 0.0 1011160
10:00+13nne214339 0.0 1007910
13:00+17nne343029 0.0 10031900
16:00+16ene114072 0.1 10021151
19:00+12s125693 0.3 100355
22:00+6s22934 0.4 100531
18 august, thu
thu1801:00+4sse229581 0.4 100425
04:00+4w2298100 2.1 100422
07:00+6nw1393100 3.1 1006197
10:00+7n238751 0.4 1008504
13:00+9nnw237084 0.8 1008944
16:00+10n3459100 0.4 10061013
19:00+8nnw226751 0.8 100733
22:00+5wsw2290100 0.9 100954